Temp_Advection
nan nan nan nan nan nan nan nan nan nan nan nan nan nan nan nan nan nan nan nan nan nan
nan -0 -0 0 -0 0 0 0 0 -0 0 -0 0 0 0 1 1 0 -0 -0 -1 nan
nan -0 -0 -0 0 0 -0 -0 -0 -0 -0 0 0 0 0 -0 -0 -1 -1 -1 -1 nan
nan -0 -0 -0 -0 -0 0 -0 -1 -0 0 0 -0 -0 -0 -0 -1 -1 -1 -1 -1 nan
nan 0 -0 -0 0 0 0 0 0 1 0 0 -0 -0 -0 -1 -1 -1 -1 -0 0 nan
nan 0 0 0 0 0 0 0 0 0 0 -0 -1 -1 -0 -0 -0 -0 0 0 -0 nan
nan 0 0 0 0 0 0 0 -0 0 -0 -1 0 0 -0 -0 -0 -0 0 0 -0 nan
nan -0 0 0 0 0 -0 -0 1 0 -1 0 -0 -1 0 0 0 -0 -0 -0 -1 nan
nan 0 0 -0 -0 -0 0 0 0 -0 1 1 -0 -0 -1 -1 -1 -0 0 -1 -1 nan
nan -0 0 0 0 0 -0 -1 -0 -0 -0 -1 -1 0 1 2 1 0 -0 -1 -1 nan
nan 0 0 0 0 0 0 0 0 -0 -0 -1 -1 -1 0 2 1 0 -0 -0 -1 nan
nan -0 -0 -0 0 -0 -0 0 0 0 0 0 -0 -1 -1 0 1 -0 -0 -0 -0 nan
nan -1 -1 -1 -1 -1 -1 -1 -1 -1 -0 -0 -0 -0 -0 -0 0 -0 -1 0 1 nan
nan nan nan nan nan nan nan nan nan nan nan nan nan nan nan nan nan nan nan nan nan nan
Wind_Speed
19 20 21 21 23 26 29 33 41 42 40 35 37 44 42 43 40 40 37 39 35 37
20 22 19 20 24 25 26 37 40 40 40 36 37 38 40 41 33 36 33 32 35 45
21 25 22 21 22 26 29 43 41 37 35 33 33 37 41 37 34 37 41 43 47 44
22 24 24 24 25 29 32 37 42 39 40 38 38 38 39 39 41 43 45 48 48 45
20 22 25 27 28 31 37 35 35 37 40 43 46 45 47 48 48 49 51 51 51 51
19 22 23 26 29 32 36 40 40 40 42 46 46 48 50 52 53 54 53 52 52 54
19 20 22 24 27 28 30 35 38 40 41 44 47 50 52 54 55 56 58 58 59 60
17 20 23 26 27 30 32 32 34 37 41 44 48 51 53 56 60 62 62 62 64 64
11 18 21 23 25 29 33 37 37 38 39 42 45 49 53 56 60 61 62 63 63 64
5 9 12 16 24 26 31 31 36 39 42 45 46 47 48 48 52 55 58 61 62 62
6 7 10 13 16 19 25 29 31 37 42 45 48 48 50 52 50 49 53 55 59 61
12 12 12 12 12 16 21 25 28 31 36 35 46 50 53 52 53 54 55 54 52 54
18 18 17 15 15 16 17 21 24 25 30 35 40 46 53 53 51 54 56 55 56 59
15 16 18 19 19 17 16 17 20 22 22 24 31 37 47 51 52 52 51 52 54 58
Wind_Direction
211 218 235 227 217 217 218 212 214 213 214 216 216 216 219 231 230 218 211 229 224 223
217 217 221 230 229 223 219 210 209 211 211 218 214 220 224 225 215 218 217 232 238 237
223 220 221 225 228 230 213 207 211 216 219 221 223 222 224 216 212 221 228 230 236 240
230 230 227 225 224 222 220 218 222 224 222 227 232 233 233 232 230 232 231 235 240 242
241 236 232 232 228 226 224 225 232 238 239 236 233 233 233 233 235 237 238 240 241 243
248 245 242 237 236 237 236 242 247 247 245 242 240 240 238 238 240 243 244 245 246 248
258 259 257 254 249 247 245 245 248 249 248 247 246 246 244 244 245 247 249 251 252 253
268 273 269 263 261 259 259 259 257 253 252 250 249 247 249 249 250 251 252 253 254 255
239 242 256 272 278 273 268 265 264 263 262 258 255 255 252 249 250 252 255 257 257 257
231 242 250 254 253 255 266 275 274 273 269 267 267 267 268 265 256 255 256 258 260 261
330 292 265 255 257 259 256 255 256 264 272 274 276 276 275 273 268 261 260 263 262 262
349 338 327 309 282 267 263 264 265 266 265 265 271 277 278 274 267 262 263 263 264 265
344 340 334 327 316 310 300 288 283 278 271 267 266 267 269 268 264 262 265 268 263 257
345 341 338 337 333 328 323 316 312 308 300 288 273 259 258 260 263 259 256 256 256 256
Height
1439 1441 1444 1447 1450 1454 1458 1462 1467 1471 1478 1482 1487 1492 1498 1502 1504 1508 1511 1517 1518 1521
1437 1440 1441 1444 1449 1452 1457 1461 1466 1470 1475 1479 1482 1487 1493 1497 1499 1503 1507 1511 1515 1517
1436 1439 1442 1444 1447 1450 1455 1459 1463 1468 1472 1477 1481 1485 1489 1492 1496 1499 1502 1505 1507 1509
1437 1439 1441 1444 1447 1450 1454 1459 1462 1466 1470 1473 1477 1481 1484 1487 1490 1493 1496 1498 1500 1500
1434 1437 1440 1443 1446 1450 1453 1457 1461 1465 1468 1470 1473 1475 1478 1480 1483 1485 1487 1489 1491 1491
1432 1434 1437 1440 1444 1447 1451 1454 1456 1458 1459 1463 1466 1468 1470 1473 1474 1475 1477 1480 1481 1483
1428 1430 1433 1435 1438 1441 1444 1446 1448 1450 1452 1454 1456 1458 1460 1462 1464 1466 1467 1469 1469 1471
1424 1426 1428 1429 1432 1434 1435 1437 1439 1441 1443 1445 1446 1446 1449 1451 1453 1454 1454 1455 1455 1456
1419 1421 1423 1425 1426 1427 1428 1428 1431 1431 1432 1433 1433 1433 1436 1438 1439 1440 1440 1440 1440 1441
1416 1416 1417 1418 1419 1421 1422 1423 1422 1421 1423 1422 1421 1422 1423 1424 1427 1427 1427 1428 1428 1428
1412 1412 1412 1413 1413 1413 1413 1413 1414 1415 1414 1412 1411 1410 1410 1412 1414 1415 1415 1415 1415 1415
1410 1408 1406 1406 1406 1405 1405 1406 1406 1406 1405 1404 1402 1403 1401 1402 1403 1401 1399 1401 1402 1402
1405 1403 1402 1401 1399 1397 1396 1396 1395 1396 1394 1393 1392 1391 1388 1389 1390 1388 1387 1388 1390 1389
1404 1401 1398 1395 1392 1391 1391 1390 1388 1386 1385 1383 1380 1378 1375 1376 1378 1380 1381 1379 1376 1374